| time (UTC) | temp F | wind direction | speed knots | gust knots | rain 1hr in | rain 24hr in | rain mn in | humidity % | barometer mb |
| 20260508132508 | 48 | 164 | 0.0 | 0.9 | 0.00 | 1.61 | 0.01 | 100 | 1003.0 |
| 20260508132007 | 48 | 217 | 0.0 | 0.9 | 0.00 | 1.61 | 0.01 | 100 | 1002.9 |
| 20260508131508 | 47 | 217 | 0.9 | 2.6 | 0.00 | 1.61 | 0.01 | 100 | 1002.9 |
| 20260508131017 | 47 | 14 | 1.7 | 2.6 | 0.00 | 1.61 | 0.01 | 100 | 1002.9 |
| 20260508130514 | 47 | 201 | 0.9 | 1.7 | 0.00 | 1.61 | 0.01 | 100 | 1003.0 |
| 20260508130105 | 46 | 207 | 0.9 | 1.7 | 0.00 | 1.61 | 0.01 | 100 | 1003.1 |
| 20260508125523 | 45 | 217 | 0.0 | 0.9 | 0.00 | 1.61 | 0.01 | 100 | 1003.0 |
| 20260508125033 | 45 | 216 | 0.0 | 0.9 | 0.00 | 1.61 | 0.01 | 100 | 1002.9 |
| 20260508124513 | 45 | 179 | 0.0 | 1.7 | 0.00 | 1.61 | 0.01 | 100 | 1002.9 |
| 20260508124022 | 45 | 202 | 0.0 | 1.7 | 0.00 | 1.61 | 0.01 | 100 | 1002.9 |
| 20260508123520 | 45 | 208 | 0.0 | 0.9 | 0.00 | 1.61 | 0.01 | 100 | 1002.7 |
| 20260508123048 | 45 | 328 | 0.0 | 0.9 | 0.00 | 1.61 | 0.01 | 100 | 1002.8 |
| 20260508122507 | 45 | 330 | 0.0 | 1.7 | 0.00 | 1.61 | 0.01 | 100 | 1002.8 |
| 20260508122008 | 45 | 15 | 0.0 | 2.6 | 0.00 | 1.61 | 0.01 | 100 | 1002.8 |
| 20260508121509 | 46 | 221 | 0.9 | 2.6 | 0.00 | 1.61 | 0.01 | 100 | 1002.8 |
| 20260508121038 | 46 | 219 | 0.9 | 1.7 | 0.00 | 1.61 | 0.01 | 100 | 1002.8 |
| 20260508120546 | 45 | 210 | 0.9 | 1.7 | 0.00 | 1.61 | 0.01 | 100 | 1002.6 |
| 20260508120052 | 46 | 189 | 0.9 | 1.7 | 0.00 | 1.69 | 0.01 | 100 | 1002.6 |
| 20260508115510 | 45 | 198 | 0.9 | 1.7 | 0.00 | 1.69 | 0.01 | 100 | 1002.5 |
| 20260508115010 | 45 | 158 | 0.9 | 1.7 | 0.00 | 1.69 | 0.01 | 100 | 1002.4 |
| 20260508114511 | 45 | 203 | 0.0 | 1.7 | 0.00 | 1.69 | 0.01 | 100 | 1002.5 |
| 20260508114019 | 45 | 196 | 0.9 | 2.6 | 0.00 | 1.69 | 0.01 | 100 | 1002.6 |
| 20260508113539 | 45 | 212 | 0.9 | 2.6 | 0.00 | 1.69 | 0.01 | 100 | 1002.5 |
| 20260508113025 | 45 | 188 | 0.0 | 2.6 | 0.00 | 1.69 | 0.01 | 100 | 1002.5 |
| 20260508112526 | 45 | 191 | 0.9 | 1.7 | 0.00 | 1.69 | 0.01 | 100 | 1002.5 |
| 20260508112054 | 45 | 199 | 0.9 | 2.6 | 0.00 | 1.69 | 0.01 | 100 | 1002.5 |
| 20260508111514 | 46 | 198 | 0.9 | 2.6 | 0.00 | 1.69 | 0.01 | 100 | 1002.5 |
| 20260508111015 | 46 | 195 | 0.9 | 2.6 | 0.00 | 1.69 | 0.01 | 100 | 1002.4 |
| 20260508110541 | 46 | 176 | 0.9 | 4.3 | 0.00 | 1.69 | 0.01 | 100 | 1002.5 |
| 20260508110049 | 46 | 167 | 1.7 | 4.3 | 0.00 | 1.69 | 0.01 | 100 | 1002.6 |
| 20260508105507 | 46 | 188 | 1.7 | 4.3 | 0.00 | 1.69 | 0.01 | 100 | 1002.7 |
| 20260508105008 | 46 | 138 | 1.7 | 2.6 | 0.00 | 1.69 | 0.01 | 100 | 1002.7 |
| 20260508104516 | 46 | 207 | 1.7 | 2.6 | 0.00 | 1.69 | 0.01 | 100 | 1002.6 |
| 20260508104017 | 46 | 171 | 0.0 | 1.7 | 0.00 | 1.69 | 0.01 | 100 | 1002.6 |
| 20260508103524 | 46 | 150 | 0.9 | 1.7 | 0.00 | 1.69 | 0.01 | 100 | 1002.6 |
| 20260508103046 | 45 | 110 | 0.9 | 2.6 | 0.00 | 1.69 | 0.01 | 100 | 1002.5 |
| 20260508102533 | 45 | 148 | 0.9 | 1.7 | 0.00 | 1.69 | 0.01 | 100 | 1002.5 |
| 20260508102013 | 45 | 132 | 0.9 | 1.7 | 0.00 | 1.69 | 0.01 | 100 | 1002.5 |
| 20260508101515 | 45 | 136 | 0.0 | 0.9 | 0.00 | 1.69 | 0.01 | 100 | 1002.5 |
| 20260508101023 | 45 | 216 | 0.0 | 0.9 | 0.00 | 1.69 | 0.01 | 100 | 1002.4 |
| 20260508100541 | 44 | 114 | 0.0 | 0.9 | 0.00 | 1.69 | 0.01 | 100 | 1002.3 |
| 20260508100051 | 44 | 114 | 0.0 | 0.9 | 0.00 | 1.69 | 0.01 | 100 | 1002.2 |
| 20260508095509 | 44 | 114 | 0.0 | 0.9 | 0.00 | 1.69 | 0.01 | 100 | 1002.2 |
| 20260508095020 | 44 | 114 | 0.0 | 0.9 | 0.00 | 1.69 | 0.01 | 100 | 1002.2 |
| 20260508094522 | 44 | 114 | 0.0 | 0.9 | 0.00 | 1.69 | 0.01 | 100 | 1002.1 |
| 20260508094031 | 44 | 116 | 0.0 | 0.9 | 0.00 | 1.69 | 0.01 | 100 | 1002.2 |
| 20260508093533 | 44 | 116 | 0.0 | 0.9 | 0.00 | 1.69 | 0.01 | 100 | 1002.2 |
| 20260508093022 | 44 | 116 | 0.0 | 0.9 | 0.00 | 1.69 | 0.01 | 100 | 1002.1 |
| 20260508092523 | 43 | 116 | 0.0 | 0.9 | 0.00 | 1.69 | 0.01 | 100 | 1002.1 |
| 20260508092026 | 43 | 116 | 0.0 | 0.9 | 0.00 | 1.69 | 0.01 | 100 | 1002.2 |
| 20260508091537 | 43 | 116 | 0.0 | 0.0 | 0.00 | 1.69 | 0.01 | 100 | 1002.2 |
| 20260508091020 | 43 | 116 | 0.0 | 0.9 | 0.00 | 1.69 | 0.01 | 100 | 1002.2 |
| 20260508090530 | 43 | 116 | 0.0 | 0.9 | 0.00 | 1.69 | 0.01 | 100 | 1002.2 |
| 20260508090033 | 43 | 116 | 0.0 | 0.9 | 0.00 | 1.69 | 0.01 | 100 | 1002.2 |
| 20260508085512 | 42 | 116 | 0.0 | 0.9 | 0.00 | 1.69 | 0.01 | 100 | 1002.2 |
| 20260508085041 | 43 | 116 | 0.0 | 0.9 | 0.00 | 1.69 | 0.01 | 100 | 1002.0 |
| 20260508084522 | 42 | 116 | 0.0 | 0.9 | 0.00 | 1.69 | 0.01 | 100 | 1001.9 |
| 20260508084030 | 42 | 169 | 0.0 | 0.0 | 0.00 | 1.69 | 0.01 | 100 | 1002.0 |
| 20260508083537 | 42 | 169 | 0.0 | 0.0 | 0.00 | 1.69 | 0.01 | 100 | 1002.0 |
| 20260508083020 | 41 | 169 | 0.0 | 0.0 | 0.00 | 1.69 | 0.01 | 100 | 1002.0 |
| 20260508082532 | 41 | 169 | 0.0 | 0.0 | 0.00 | 1.69 | 0.01 | 100 | 1002.0 |
| 20260508082017 | 41 | 169 | 0.0 | 0.0 | 0.00 | 1.69 | 0.01 | 100 | 1002.0 |
| 20260508081519 | 41 | 169 | 0.0 | 0.0 | 0.00 | 1.69 | 0.01 | 100 | 1002.1 |
| 20260508081007 | 41 | 169 | 0.0 | 0.0 | 0.00 | 1.69 | 0.01 | 100 | 1002.4 |
| 20260508080517 | 41 | 169 | 0.0 | 0.0 | 0.00 | 1.69 | 0.01 | 100 | 1002.4 |
| 20260508080042 | 41 | 169 | 0.0 | 0.0 | 0.00 | 1.73 | 0.01 | 100 | 1002.6 |
| 20260508075530 | 40 | 169 | 0.0 | 0.0 | 0.00 | 1.73 | 0.01 | 100 | 1002.5 |
| 20260508075013 | 40 | 169 | 0.0 | 0.0 | 0.00 | 1.73 | 0.01 | 100 | 1002.7 |
| 20260508074539 | 40 | 169 | 0.0 | 0.9 | 0.00 | 1.73 | 0.01 | 100 | 1002.7 |
| 20260508074021 | 40 | 169 | 0.0 | 0.9 | 0.00 | 1.73 | 0.01 | 100 | 1002.7 |
| 20260508073550 | 39 | 230 | 0.0 | 0.9 | 0.00 | 1.73 | 0.01 | 100 | 1002.5 |
| 20260508073011 | 39 | 230 | 0.0 | 0.0 | 0.00 | 1.73 | 0.01 | 100 | 1002.2 |
| 20260508072517 | 39 | 230 | 0.0 | 0.0 | 0.00 | 1.73 | 0.01 | 100 | 1002.2 |
| 20260508072028 | 39 | 230 | 0.0 | 0.0 | 0.00 | 1.73 | 0.01 | 100 | 1002.1 |
| 20260508071516 | 39 | 230 | 0.0 | 0.0 | 0.00 | 1.73 | 0.01 | 100 | 1002.0 |
| 20260508071036 | 39 | 230 | 0.0 | 0.0 | 0.00 | 1.73 | 0.01 | 100 | 1001.9 |
| 20260508070529 | 39 | 230 | 0.0 | 0.9 | 0.00 | 1.73 | 0.01 | 100 | 1002.1 |
| 20260508070031 | 39 | 230 | 0.0 | 0.0 | 0.00 | 1.85 | 0.01 | 100 | 1002.0 |
| 20260508065520 | 39 | 230 | 0.0 | 0.0 | 0.00 | 1.85 | 0.01 | 100 | 1002.1 |
| 20260508065023 | 39 | 230 | 0.0 | 0.0 | 0.00 | 1.85 | 0.01 | 100 | 1002.0 |
| 20260508064534 | 39 | 230 | 0.0 | 0.0 | 0.00 | 1.85 | 0.01 | 100 | 1002.1 |
| 20260508064016 | 40 | 230 | 0.0 | 0.9 | 0.00 | 1.85 | 0.01 | 100 | 1002.2 |
| 20260508063519 | 40 | 230 | 0.0 | 0.9 | 0.00 | 1.85 | 0.01 | 100 | 1002.1 |
| 20260508063029 | 40 | 230 | 0.0 | 0.9 | 0.00 | 1.85 | 0.01 | 100 | 1002.2 |
| 20260508062533 | 40 | 230 | 0.0 | 0.9 | 0.00 | 1.85 | 0.01 | 100 | 1002.2 |
| 20260508062015 | 40 | 230 | 0.0 | 0.0 | 0.00 | 1.85 | 0.01 | 100 | 1002.3 |
| 20260508061524 | 40 | 230 | 0.0 | 0.9 | 0.00 | 1.85 | 0.01 | 100 | 1002.4 |
| 20260508061011 | 41 | 230 | 0.0 | 0.9 | 0.04 | 1.85 | 0.01 | 100 | 1002.4 |
| 20260508060511 | 41 | 230 | 0.0 | 0.9 | 0.04 | 1.85 | 0.01 | 100 | 1002.2 |
| 20260508060058 | 41 | 230 | 0.0 | 0.9 | 0.04 | 1.85 | 0.01 | 100 | 1002.0 |
| 20260508055523 | 42 | 230 | 0.0 | 0.9 | 0.04 | 1.85 | 0.01 | 100 | 1002.0 |
| 20260508055008 | 41 | 230 | 0.0 | 0.0 | 0.04 | 1.85 | 0.01 | 100 | 1002.1 |
| 20260508054511 | 41 | 230 | 0.0 | 0.0 | 0.04 | 1.85 | 0.01 | 100 | 1002.2 |
| 20260508054018 | 41 | 230 | 0.0 | 0.0 | 0.04 | 1.85 | 0.01 | 100 | 1002.2 |
| 20260508053530 | 41 | 230 | 0.0 | 0.0 | 0.04 | 1.85 | 0.01 | 100 | 1002.4 |
| 20260508053013 | 41 | 230 | 0.0 | 0.0 | 0.04 | 1.85 | 0.01 | 100 | 1002.7 |
| 20260508052536 | 41 | 230 | 0.0 | 0.9 | 0.04 | 1.85 | 0.01 | 100 | 1002.6 |
| 20260508052027 | 41 | 230 | 0.0 | 0.9 | 0.04 | 1.85 | 0.01 | 100 | 1002.5 |
| 20260508051509 | 41 | 230 | 0.0 | 0.9 | 0.04 | 1.85 | 0.01 | 100 | 1002.5 |
| 20260508051012 | 42 | 230 | 0.0 | 0.0 | 0.00 | 1.81 | 0.00 | 100 | 1002.7 |
| 20260508050520 | 42 | 230 | 0.0 | 0.0 | 0.00 | 1.81 | 0.00 | 100 | 1002.7 |
| 20260508050040 | 42 | 230 | 0.0 | 0.0 | 0.00 | 1.81 | 0.00 | 100 | 1002.7 |
| 20260508045529 | 43 | 230 | 0.0 | 0.0 | 0.00 | 1.81 | 0.00 | 100 | 1002.7 |
| 20260508045012 | 43 | 230 | 0.0 | 0.9 | 0.00 | 1.81 | 0.00 | 100 | 1002.6 |
| 20260508044536 | 43 | 230 | 0.0 | 0.9 | 0.00 | 1.81 | 0.00 | 100 | 1002.6 |
| 20260508044024 | 43 | 230 | 0.0 | 0.0 | 0.00 | 1.81 | 0.00 | 100 | 1002.6 |
| 20260508043508 | 43 | 230 | 0.0 | 0.0 | 0.00 | 1.81 | 0.00 | 100 | 1002.5 |
| 20260508043012 | 43 | 230 | 0.0 | 0.0 | 0.00 | 1.81 | 0.00 | 100 | 1002.3 |
| 20260508042514 | 43 | 230 | 0.0 | 0.0 | 0.00 | 1.81 | 0.00 | 100 | 1002.4 |
| 20260508042046 | 44 | 230 | 0.0 | 0.0 | 0.00 | 1.81 | 0.00 | 100 | 1002.3 |
| 20260508041507 | 44 | 230 | 0.0 | 0.0 | 0.00 | 1.81 | 0.00 | 99 | 1002.2 |
| 20260508041017 | 44 | 230 | 0.0 | 0.0 | 0.00 | 1.81 | 0.00 | 99 | 1002.4 |
| 20260508040517 | 44 | 230 | 0.0 | 0.0 | 0.00 | 1.81 | 0.00 | 99 | 1002.5 |
| 20260508040049 | 45 | 230 | 0.0 | 0.0 | 0.00 | 1.81 | 0.00 | 100 | 1002.6 |
| 20260508035509 | 45 | 230 | 0.0 | 0.0 | 0.00 | 1.81 | 0.00 | 100 | 1002.6 |
| 20260508035012 | 45 | 230 | 0.0 | 0.9 | 0.00 | 1.81 | 0.00 | 99 | 1002.6 |
| 20260508034513 | 46 | 230 | 0.0 | 0.9 | 0.00 | 1.81 | 0.00 | 99 | 1002.7 |
| 20260508034022 | 47 | 230 | 0.0 | 0.9 | 0.00 | 1.81 | 0.00 | 100 | 1002.6 |
| 20260508033524 | 47 | 230 | 0.0 | 0.9 | 0.00 | 1.81 | 0.00 | 100 | 1002.6 |
| 20260508033032 | 47 | 245 | 0.0 | 0.9 | 0.00 | 1.81 | 0.00 | 100 | 1002.6 |
| 20260508032530 | 47 | 245 | 0.0 | 0.9 | 0.00 | 1.81 | 0.00 | 100 | 1002.8 |
| 20260508032012 | 47 | 245 | 0.0 | 0.9 | 0.00 | 1.81 | 0.00 | 100 | 1003.0 |
| 20260508031520 | 47 | 245 | 0.9 | 0.9 | 0.00 | 1.81 | 0.00 | 100 | 1003.0 |
| 20260508031021 | 47 | 245 | 0.0 | 0.9 | 0.00 | 1.81 | 0.00 | 100 | 1002.9 |
| 20260508030550 | 47 | 245 | 0.0 | 0.9 | 0.00 | 1.81 | 0.00 | 100 | 1002.9 |
| 20260508030035 | 47 | 245 | 0.0 | 0.9 | 0.00 | 1.81 | 0.36 | 100 | 1002.9 |
| 20260508025514 | 47 | 245 | 0.0 | 0.9 | 0.00 | 1.81 | 0.36 | 100 | 1002.7 |
| 20260508025041 | 47 | 245 | 0.9 | 0.9 | 0.00 | 1.81 | 0.36 | 100 | 1003.0 |
| 20260508024529 | 47 | 245 | 0.0 | 0.9 | 0.00 | 1.81 | 0.36 | 100 | 1002.9 |
| 20260508024027 | 47 | 245 | 0.0 | 0.9 | 0.00 | 1.81 | 0.36 | 100 | 1002.9 |
| 20260508023023 | 47 | 6 | 0.0 | 0.9 | 0.00 | 1.81 | 0.36 | 100 | 1002.9 |
| 20260508022524 | 47 | 6 | 0.0 | 0.0 | 0.00 | 1.81 | 0.36 | 100 | 1002.8 |
| 20260508022029 | 46 | 6 | 0.0 | 0.0 | 0.00 | 1.81 | 0.36 | 100 | 1003.0 |
| 20260508021512 | 46 | 6 | 0.0 | 0.0 | 0.00 | 1.81 | 0.36 | 100 | 1002.9 |
| 20260508021024 | 46 | 6 | 0.0 | 0.0 | 0.00 | 1.81 | 0.36 | 100 | 1002.8 |
| 20260508020527 | 46 | 6 | 0.0 | 0.0 | 0.00 | 1.81 | 0.36 | 99 | 1002.8 |
| 20260508020058 | 46 | 6 | 0.0 | 0.9 | 0.00 | 1.81 | 0.36 | 99 | 1002.9 |
| 20260508015520 | 46 | 6 | 0.0 | 0.9 | 0.00 | 1.81 | 0.36 | 99 | 1002.8 |
| 20260508015029 | 46 | 6 | 0.0 | 0.0 | 0.00 | 1.81 | 0.36 | 99 | 1002.8 |
| 20260508014512 | 46 | 6 | 0.0 | 0.0 | 0.00 | 1.81 | 0.36 | 99 | 1002.9 |
| 20260508014044 | 46 | 6 | 0.0 | 0.0 | 0.00 | 1.81 | 0.36 | 99 | 1002.9 |
| 20260508013526 | 46 | 6 | 0.0 | 0.0 | 0.00 | 1.81 | 0.36 | 99 | 1003.0 |
| 20260508013008 | 47 | 6 | 0.0 | 0.9 | 0.00 | 1.81 | 0.36 | 99 | 1002.8 |
| 20260508012510 | 47 | 6 | 0.0 | 0.9 | 0.00 | 1.81 | 0.36 | 99 | 1002.5 |
| 20260508012018 | 47 | 6 | 0.0 | 0.0 | 0.00 | 1.81 | 0.36 | 99 | 1002.4 |
| 20260508011523 | 47 | 6 | 0.0 | 0.0 | 0.00 | 1.81 | 0.36 | 99 | 1002.4 |
| 20260508011026 | 47 | 6 | 0.0 | 0.0 | 0.00 | 1.81 | 0.36 | 99 | 1002.4 |
| 20260508010518 | 48 | 6 | 0.0 | 0.0 | 0.00 | 1.81 | 0.36 | 99 | 1002.6 |
| 20260508010041 | 48 | 6 | 0.0 | 0.0 | 0.00 | 1.81 | 0.36 | 99 | 1002.7 |
| 20260508005529 | 48 | 6 | 0.0 | 0.9 | 0.00 | 1.81 | 0.36 | 99 | 1002.7 |
| 20260508005027 | 48 | 6 | 0.0 | 0.9 | 0.00 | 1.81 | 0.36 | 99 | 1002.7 |
| 20260508004523 | 48 | 6 | 0.0 | 0.0 | 0.00 | 1.81 | 0.36 | 99 | 1002.7 |
| 20260508004031 | 48 | 6 | 0.0 | 0.0 | 0.00 | 1.81 | 0.36 | 98 | 1002.7 |
| 20260508003528 | 48 | 6 | 0.0 | 0.0 | 0.00 | 1.81 | 0.36 | 98 | 1002.5 |
| 20260508003008 | 49 | 6 | 0.0 | 0.0 | 0.00 | 1.81 | 0.36 | 98 | 1002.6 |
| 20260508002512 | 49 | 6 | 0.0 | 0.0 | 0.00 | 1.81 | 0.36 | 98 | 1002.5 |
| 20260508002022 | 49 | 6 | 0.0 | 0.0 | 0.00 | 1.81 | 0.36 | 98 | 1002.6 |
| 20260508001524 | 49 | 6 | 0.0 | 0.0 | 0.00 | 1.81 | 0.36 | 98 | 1002.4 |
| 20260508001009 | 49 | 6 | 0.0 | 0.0 | 0.00 | 1.81 | 0.36 | 98 | 1002.5 |
| 20260508000518 | 50 | 6 | 0.0 | 0.0 | 0.00 | 1.81 | 0.36 | 98 | 1002.4 |
| 20260508000111 | 50 | 6 | 0.0 | 0.0 | 0.00 | 1.81 | 0.36 | 98 | 1002.4 |
| 20260507235512 | 50 | 6 | 0.0 | 0.9 | 0.00 | 1.81 | 0.36 | 98 | 1002.3 |
| 20260507235014 | 50 | 6 | 0.0 | 0.9 | 0.00 | 1.81 | 0.36 | 98 | 1002.4 |
| 20260507234517 | 50 | 6 | 0.0 | 0.0 | 0.00 | 1.81 | 0.36 | 98 | 1002.4 |
| 20260507234048 | 50 | 6 | 0.0 | 0.0 | 0.00 | 1.81 | 0.36 | 97 | 1002.4 |
| 20260507233511 | 50 | 6 | 0.0 | 0.0 | 0.00 | 1.81 | 0.36 | 97 | 1002.5 |
| 20260507233023 | 50 | 6 | 0.0 | 0.9 | 0.00 | 1.81 | 0.36 | 97 | 1002.4 |
| 20260507232524 | 51 | 6 | 0.0 | 0.9 | 0.00 | 1.81 | 0.36 | 97 | 1002.4 |
| 20260507232052 | 51 | 6 | 0.0 | 0.9 | 0.00 | 1.81 | 0.36 | 97 | 1002.4 |
| 20260507231513 | 51 | 7 | 0.0 | 1.7 | 0.00 | 1.81 | 0.36 | 96 | 1002.4 |
| 20260507231014 | 51 | 301 | 0.0 | 2.6 | 0.00 | 1.81 | 0.36 | 96 | 1002.4 |
| 20260507230512 | 52 | 12 | 0.9 | 1.7 | 0.00 | 1.81 | 0.36 | 96 | 1002.4 |
| 20260507230043 | 52 | 237 | 0.0 | 0.0 | 0.00 | 1.81 | 0.36 | 96 | 1002.3 |
| 20260507225553 | 52 | 237 | 0.0 | 0.9 | 0.00 | 1.81 | 0.36 | 96 | 1002.3 |
| 20260507225015 | 52 | 237 | 0.0 | 0.9 | 0.00 | 1.81 | 0.36 | 95 | 1002.2 |
| 20260507224513 | 52 | 237 | 0.0 | 0.9 | 0.00 | 1.81 | 0.36 | 95 | 1002.2 |
| 20260507224021 | 52 | 237 | 0.0 | 0.9 | 0.00 | 1.81 | 0.36 | 95 | 1002.1 |
| 20260507223523 | 53 | 238 | 0.0 | 0.9 | 0.00 | 1.81 | 0.36 | 95 | 1002.2 |
| 20260507223025 | 53 | 238 | 0.0 | 0.9 | 0.00 | 1.81 | 0.36 | 95 | 1002.2 |
| 20260507222533 | 53 | 238 | 0.0 | 0.9 | 0.00 | 1.81 | 0.36 | 95 | 1002.3 |
| 20260507222014 | 53 | 238 | 0.0 | 1.7 | 0.00 | 1.81 | 0.36 | 95 | 1002.2 |
| 20260507221515 | 53 | 238 | 0.9 | 2.6 | 0.00 | 1.81 | 0.36 | 94 | 1002.2 |
| 20260507221016 | 53 | 208 | 0.9 | 2.6 | 0.00 | 1.81 | 0.36 | 94 | 1002.2 |
| 20260507220524 | 54 | 218 | 0.9 | 2.6 | 0.00 | 1.81 | 0.36 | 94 | 1002.1 |
| 20260507220047 | 54 | 211 | 0.9 | 2.6 | 0.00 | 1.81 | 0.36 | 94 | 1002.1 |
| 20260507215533 | 54 | 208 | 0.9 | 2.6 | 0.00 | 1.81 | 0.36 | 93 | 1001.9 |
| 20260507215014 | 54 | 222 | 1.7 | 2.6 | 0.00 | 1.81 | 0.36 | 93 | 1001.9 |
| 20260507214515 | 55 | 215 | 0.9 | 2.6 | 0.00 | 1.81 | 0.36 | 93 | 1001.9 |
| 20260507214024 | 55 | 215 | 0.9 | 1.7 | 0.00 | 1.81 | 0.36 | 94 | 1001.9 |
| 20260507213525 | 55 | 321 | 0.0 | 2.6 | 0.00 | 1.81 | 0.36 | 93 | 1002.0 |
| 20260507213026 | 55 | 226 | 0.9 | 2.6 | 0.00 | 1.81 | 0.36 | 94 | 1002.0 |
| 20260507212534 | 55 | 224 | 0.9 | 2.6 | 0.00 | 1.81 | 0.36 | 95 | 1001.9 |
| 20260507212035 | 55 | 213 | 0.9 | 2.6 | 0.00 | 1.81 | 0.36 | 95 | 1001.9 |
| 20260507211515 | 54 | 214 | 0.9 | 2.6 | 0.00 | 1.81 | 0.36 | 95 | 1001.9 |
| 20260507211044 | 54 | 204 | 1.7 | 3.5 | 0.00 | 1.81 | 0.36 | 94 | 1001.9 |
| 20260507210532 | 55 | 191 | 0.9 | 3.5 | 0.00 | 1.81 | 0.36 | 95 | 1001.8 |
| 20260507210054 | 55 | 191 | 0.9 | 1.7 | 0.00 | 1.81 | 0.36 | 96 | 1001.8 |
| 20260507205519 | 54 | 196 | 0.9 | 1.7 | 0.00 | 1.81 | 0.36 | 96 | 1001.8 |
| 20260507205019 | 54 | 274 | 0.0 | 2.6 | 0.00 | 1.81 | 0.36 | 97 | 1001.8 |
| 20260507204521 | 54 | 235 | 0.9 | 2.6 | 0.00 | 1.81 | 0.36 | 97 | 1001.7 |
| 20260507204028 | 54 | 214 | 0.9 | 2.6 | 0.00 | 1.81 | 0.36 | 98 | 1001.8 |
| 20260507203509 | 53 | 216 | 0.0 | 1.7 | 0.00 | 1.81 | 0.36 | 98 | 1001.7 |
| 20260507203011 | 53 | 252 | 0.0 | 2.6 | 0.04 | 1.81 | 0.36 | 98 | 1001.6 |
| 20260507202512 | 53 | 126 | 0.0 | 2.6 | 0.04 | 1.81 | 0.36 | 98 | 1001.6 |
| 20260507202020 | 53 | 184 | 0.0 | 1.7 | 0.08 | 1.81 | 0.36 | 99 | 1001.5 |
| 20260507201520 | 53 | 294 | 0.9 | 1.7 | 0.08 | 1.81 | 0.36 | 99 | 1001.5 |
| 20260507201028 | 52 | 205 | 0.9 | 1.7 | 0.08 | 1.81 | 0.36 | 99 | 1001.4 |
| 20260507200509 | 52 | 191 | 0.0 | 1.7 | 0.08 | 1.81 | 0.36 | 99 | 1001.4 |
| 20260507200033 | 52 | 307 | 0.0 | 2.6 | 0.08 | 1.81 | 0.36 | 99 | 1001.5 |
| 20260507195518 | 52 | 209 | 0.9 | 2.6 | 0.08 | 1.81 | 0.36 | 99 | 1001.5 |
| 20260507195019 | 52 | 312 | 0.9 | 1.7 | 0.08 | 1.81 | 0.36 | 99 | 1001.5 |
| 20260507194547 | 52 | 300 | 0.0 | 1.7 | 0.08 | 1.81 | 0.36 | 99 | 1001.5 |
| 20260507194026 | 52 | 300 | 0.0 | 1.7 | 0.08 | 1.81 | 0.36 | 99 | 1001.6 |
| 20260507193527 | 52 | 205 | 0.0 | 2.6 | 0.08 | 1.81 | 0.36 | 99 | 1001.6 |
| 20260507193015 | 53 | 300 | 0.0 | 2.6 | 0.04 | 1.77 | 0.35 | 99 | 1001.6 |
| 20260507192535 | 53 | 116 | 0.9 | 2.6 | 0.04 | 1.77 | 0.35 | 99 | 1001.6 |
| 20260507192022 | 53 | 222 | 0.9 | 1.7 | 0.00 | 1.73 | 0.35 | 99 | 1001.5 |
| 20260507191523 | 53 | 221 | 0.0 | 1.7 | 0.00 | 1.73 | 0.35 | 100 | 1001.5 |
| 20260507191023 | 53 | 229 | 0.9 | 4.3 | 0.04 | 1.73 | 0.35 | 99 | 1001.5 |
| 20260507190530 | 53 | 248 | 1.7 | 4.3 | 0.04 | 1.73 | 0.35 | 99 | 1001.5 |
| 20260507190034 | 53 | 48 | 0.9 | 1.7 | 0.04 | 1.73 | 0.35 | 100 | 1001.4 |
| 20260507185511 | 53 | 308 | 0.9 | 3.5 | 0.04 | 1.73 | 0.35 | 100 | 1001.4 |
| 20260507185039 | 53 | 208 | 1.7 | 3.5 | 0.04 | 1.73 | 0.35 | 100 | 1001.3 |
| 20260507184547 | 53 | 200 | 0.9 | 1.7 | 0.12 | 1.73 | 0.35 | 100 | 1001.4 |
| 20260507184007 | 52 | 213 | 0.9 | 1.7 | 0.12 | 1.73 | 0.35 | 100 | 1001.4 |
| 20260507183508 | 52 | 216 | 0.9 | 1.7 | 0.12 | 1.73 | 0.35 | 100 | 1001.6 |
| 20260507183017 | 52 | 217 | 0.9 | 1.7 | 0.16 | 1.73 | 0.35 | 100 | 1001.6 |
| 20260507182518 | 52 | 220 | 0.9 | 2.6 | 0.20 | 1.73 | 0.35 | 100 | 1001.5 |
| 20260507182047 | 52 | 205 | 0.9 | 2.6 | 0.20 | 1.73 | 0.35 | 100 | 1001.4 |
| 20260507181527 | 52 | 206 | 0.9 | 2.6 | 0.20 | 1.73 | 0.35 | 100 | 1001.4 |
| 20260507181008 | 52 | 200 | 0.9 | 2.6 | 0.20 | 1.69 | 0.34 | 100 | 1001.6 |
| 20260507180536 | 52 | 239 | 0.0 | 3.5 | 0.20 | 1.69 | 0.34 | 100 | 1000.6 |
| 20260507180044 | 52 | 240 | 0.0 | 3.5 | 0.20 | 1.69 | 0.34 | 100 | 1001.2 |
| 20260507175520 | 52 | 192 | 1.7 | 6.1 | 0.20 | 1.69 | 0.34 | 100 | 1001.8 |
| 20260507175048 | 52 | 146 | 2.6 | 6.1 | 0.16 | 1.65 | 0.33 | 100 | 1002.3 |
| 20260507174508 | 52 | 223 | 1.7 | 4.3 | 0.16 | 1.61 | 0.32 | 100 | 1002.8 |
| 20260507174009 | 52 | 199 | 1.7 | 6.1 | 0.16 | 1.61 | 0.32 | 100 | 1002.0 |
| 20260507173534 | 52 | 229 | 3.5 | 6.1 | 0.20 | 1.61 | 0.32 | 100 | 1001.6 |
| 20260507173015 | 52 | 167 | 2.6 | 7.0 | 0.20 | 1.57 | 0.31 | 100 | 1001.1 |
| 20260507172516 | 52 | 201 | 3.5 | 7.0 | 0.16 | 1.54 | 0.31 | 100 | 1001.1 |
| 20260507172025 | 52 | 199 | 2.6 | 5.2 | 0.20 | 1.54 | 0.31 | 99 | 1001.1 |
| 20260507171522 | 52 | 206 | 1.7 | 4.3 | 0.24 | 1.54 | 0.31 | 99 | 1001.1 |
| 20260507171022 | 52 | 212 | 1.7 | 4.3 | 0.28 | 1.50 | 0.30 | 100 | 1000.8 |
| 20260507170530 | 52 | 204 | 2.6 | 4.3 | 0.31 | 1.50 | 0.30 | 99 | 1001.4 |
| 20260507170033 | 53 | 237 | 2.6 | 4.3 | 0.35 | 1.50 | 0.30 | 99 | 1001.7 |
| 20260507165512 | 53 | 207 | 2.6 | 8.7 | 0.43 | 1.50 | 0.30 | 100 | 1001.7 |
| 20260507165021 | 53 | 229 | 3.5 | 8.7 | 0.51 | 1.50 | 0.30 | 100 | 1002.0 |
| 20260507164541 | 53 | 172 | 2.6 | 6.1 | 0.51 | 1.46 | 0.29 | 99 | 1001.2 |
| 20260507164029 | 53 | 210 | 2.6 | 4.3 | 0.59 | 1.46 | 0.29 | 99 | 1001.9 |
| 20260507163537 | 53 | 212 | 1.7 | 5.2 | 0.59 | 1.42 | 0.28 | 100 | 1001.9 |
| 20260507163037 | 53 | 203 | 2.6 | 5.2 | 0.63 | 1.38 | 0.28 | 99 | 1002.3 |
| 20260507162544 | 53 | 203 | 1.7 | 4.3 | 0.67 | 1.38 | 0.28 | 100 | 1002.2 |
| 20260507162025 | 53 | 240 | 2.6 | 5.2 | 0.67 | 1.34 | 0.27 | 100 | 1002.1 |
| 20260507161534 | 53 | 203 | 3.5 | 5.2 | 0.67 | 1.26 | 0.25 | 100 | 1002.4 |
| 20260507161014 | 53 | 243 | 1.7 | 3.5 | 0.63 | 1.22 | 0.24 | 100 | 1002.3 |
| 20260507160515 | 53 | 214 | 1.7 | 3.5 | 0.67 | 1.18 | 0.24 | 99 | 1002.1 |
| 20260507160045 | 53 | 243 | 1.7 | 3.5 | 0.67 | 1.14 | 0.23 | 99 | 1002.1 |
| 20260507155524 | 53 | 230 | 1.7 | 4.3 | 0.59 | 1.06 | 0.21 | 99 | 1002.4 |
| 20260507155032 | 53 | 207 | 1.7 | 4.3 | 0.55 | 0.98 | 0.20 | 99 | 1002.6 |
| 20260507154514 | 53 | 207 | 1.7 | 7.0 | 0.51 | 0.94 | 0.19 | 99 | 1002.4 |
| 20260507154013 | 53 | 214 | 2.6 | 7.8 | 0.47 | 0.87 | 0.17 | 99 | 1002.7 |
| 20260507153514 | 53 | 237 | 2.6 | 4.3 | 0.47 | 0.83 | 0.17 | 99 | 1002.7 |
| 20260507153022 | 53 | 272 | 2.6 | 5.2 | 0.47 | 0.75 | 0.15 | 99 | 1002.9 |
| 20260507152523 | 53 | 210 | 3.5 | 6.1 | 0.47 | 0.71 | 0.14 | 99 | 1003.1 |
| 20260507152051 | 53 | 231 | 3.5 | 7.0 | 0.43 | 0.67 | 0.13 | 98 | 1003.4 |
| 20260507151510 | 53 | 231 | 4.3 | 8.7 | 0.35 | 0.59 | 0.12 | 98 | 1003.3 |
| 20260507151008 | 53 | 203 | 4.3 | 8.7 | 0.31 | 0.55 | 0.11 | 98 | 1003.3 |
| 20260507150517 | 53 | 233 | 3.5 | 4.3 | 0.28 | 0.51 | 0.10 | 99 | 1003.4 |
| 20260507150036 | 53 | 198 | 2.6 | 4.3 | 0.24 | 0.47 | 0.09 | 99 | 1003.5 |
| 20260507145541 | 53 | 247 | 2.6 | 4.3 | 0.24 | 0.47 | 0.09 | 98 | 1003.5 |
| 20260507145022 | 54 | 231 | 2.6 | 4.3 | 0.20 | 0.43 | 0.09 | 98 | 1003.4 |
| 20260507144530 | 54 | 229 | 2.6 | 5.2 | 0.20 | 0.43 | 0.09 | 98 | 1003.3 |
| 20260507144032 | 54 | 207 | 1.7 | 5.2 | 0.16 | 0.39 | 0.08 | 98 | 1003.4 |
| 20260507143511 | 54 | 239 | 3.5 | 6.1 | 0.12 | 0.35 | 0.07 | 98 | 1003.4 |
| 20260507143019 | 54 | 203 | 3.5 | 7.0 | 0.04 | 0.28 | 0.06 | 98 | 1003.3 |
| 20260507142548 | 54 | 167 | 2.6 | 7.8 | 0.00 | 0.24 | 0.05 | 98 | 1003.3 |
| 20260507142008 | 54 | 190 | 3.5 | 7.0 | 0.00 | 0.24 | 0.05 | 97 | 1003.3 |
| 20260507141510 | 54 | 229 | 3.5 | 10.4 | 0.00 | 0.24 | 0.05 | 97 | 1003.4 |
| 20260507141010 | 54 | 195 | 3.5 | 10.4 | 0.00 | 0.24 | 0.05 | 97 | 1003.2 |
| 20260507140539 | 54 | 209 | 3.5 | 7.8 | 0.00 | 0.24 | 0.05 | 97 | 1003.2 |
| 20260507140048 | 54 | 201 | 4.3 | 7.8 | 0.00 | 0.24 | 0.05 | 97 | 1003.2 |
| 20260507135546 | 53 | 194 | 3.5 | 7.8 | 0.00 | 0.24 | 0.05 | 97 | 1003.1 |
| 20260507135014 | 54 | 207 | 4.3 | 7.8 | 0.00 | 0.24 | 0.05 | 97 | 1003.3 |
| 20260507134513 | 54 | 198 | 3.5 | 7.8 | 0.00 | 0.24 | 0.05 | 97 | 1003.3 |
| 20260507134013 | 53 | 234 | 5.2 | 7.8 | 0.00 | 0.24 | 0.05 | 97 | 1003.5 |
| 20260507133522 | 53 | 207 | 4.3 | 9.6 | 0.00 | 0.24 | 0.05 | 97 | 1003.6 |
| 20260507133023 | 54 | 221 | 4.3 | 9.6 | 0.00 | 0.24 | 0.05 | 97 | 1003.6 |